Location: China
(32.5303°N, 116.9058°W)
Time: 15:06:31
(UTC+00:00)

Daily predictions for brighter satellites

Satellite Brightness Start Highest point End
(mag) Time Altitude Azimuth Time Altitude Azimuth Time Altitude Azimuth
Cosmos 2208 Rocket 4.2 12:20:28 61° S 12:20:28 61° S 12:24:50 10° SSE
ATLAS 5 CENTAUR R/B 3.0 12:20:01 27° SE 12:20:46 30° ESE 12:24:11 10° NE
Cosmos 1766 Rocket 4.3 12:18:13 10° SSE 12:22:24 50° E 12:26:35 10° NNE
Cosmos 1867 3.9 12:24:57 53° SSW 12:24:57 53° SSW 12:29:15 10° SSE
Cosmos 1241 Rocket 4.3 12:25:05 66° NW 12:26:03 84° WSW 12:32:15 10° SSE
Meteor 2-13 Rocket 4.2 12:22:29 10° S 12:28:36 78° W 12:34:41 10° N
BREEZE-M DEB 3.9 12:31:18 36° E 12:31:18 36° E 12:34:22 10° NE
SL-4 R/B 4.3 12:39:35 10° S 12:42:04 19° SE 12:44:38 10° E
Hubble Space Telescope 3.2 12:43:46 12° SSW 12:43:46 12° SSW 12:44:51 10° S
H-2A R/B 2.8 12:42:12 46° NNE 12:43:15 75° ESE 12:47:01 10° S
COSMO-SKYMED 1 3.9 12:40:11 10° SE 12:44:12 39° ENE 12:48:14 10° N
Meteor 1-31 Rocket 3.5 12:41:34 10° NNE 12:45:24 54° E 12:49:14 10° S
Envisat 2.9 12:43:47 10° NNE 12:48:53 88° ESE 12:53:57 10° SSW
MOS 1-B Rocket 4.1 12:42:33 10° SSE 12:49:03 80° ENE 12:54:51 10° N
Cosmos 1174 3.7 12:51:49 55° E 12:51:49 55° E 12:54:36 10° NE
Cosmos 1408 Rocket 4.3 12:50:23 10° S 12:54:33 51° E 12:58:43 10° NNE
Cosmos 1782 4.4 12:58:15 21° SSW 12:58:15 21° SSW 12:59:48 10° SSW
CZ-4B R/B 4.1 12:53:56 10° NNE 12:58:26 87° ESE 13:02:50 10° SSW
Cosmos 1862 4.5 12:56:13 10° SSW 12:58:14 27° SW 12:58:14 27° SW
Cosmos 2369 Rocket 3.9 13:03:39 16° NNW 13:03:39 16° NNW 13:05:09 10° N
ATLAS 3B R/B 2.7 13:00:41 10° SSW 13:07:06 78° ESE 13:13:48 10° NNE
Landsat 5 4.3 13:04:17 10° SSE 13:08:41 56° ENE 13:13:05 10° N
Meteor 1-10 Rocket 4.4 13:07:12 10° N 13:12:44 70° E 13:18:16 10° SSE
DELTA 2 R/B (1) 4.2 13:10:34 28° NW 13:12:50 40° N 13:18:03 10° ENE
SJ 16-02 1.4 13:08:52 10° S 13:13:14 79° ESE 13:17:36 10° NNE
CZ-2C R/B 2.6 13:11:14 10° S 13:16:45 83° WSW 13:22:10 10° NNW
Cosmos 1354 Rocket 4.3 13:12:30 10° SW 13:17:27 42° WNW 13:22:28 10° N
CBERS 1 LM4 rocket 4.5 13:13:29 10° N 13:18:21 57° WNW 13:23:23 10° SSW
Cosmos 1515 Rocket 4.2 13:15:45 10° N 13:20:01 57° E 13:24:16 10° SSE
FALCON 9 R/B 4.0 13:04:37 21° W 13:23:01 89° NNE 13:29:49 10° ESE
SL-19 R/B 4.4 13:19:36 10° S 13:25:04 52° WSW 13:30:30 10° NNW
Cosmos 2279 Rocket 4.0 13:23:16 10° NNW 13:29:17 55° W 13:35:18 10° SSW
Nadezhda 4 Rocket 3.9 13:25:20 10° S 13:31:28 81° W 13:37:42 10° N
Cosmos 1500 Rocket 3.7 13:27:43 10° S 13:32:09 81° E 13:36:38 10° N
SKYMED 2 3.7 13:27:57 10° S 13:32:10 52° W 13:36:25 10° NNW
Cosmos 921 Rocket 4.4 13:33:05 19° W 13:33:58 20° W 13:37:16 10° SW
USA 215 4.4 13:30:25 10° E 13:36:16 36° NE 13:42:06 10° NNW
ADEOS 3.6 13:35:41 10° N 13:40:49 59° WNW 13:45:55 10° SSW
Meteor PRIRODA 3.5 13:38:26 10° N 13:42:04 80° WNW 13:45:41 10° SSW
CZ-4B R/B 2.5 13:40:46 10° N 13:44:21 86° WNW 13:48:00 10° SSW
Cosmos 1805 Rocket 4.2 13:40:06 10° S 13:44:25 61° E 13:48:44 10° NNE
H-2A R/B 3.5 13:41:30 10° SE 13:45:25 38° ENE 13:49:26 10° N
SL-27 R/B 2.4 13:43:41 10° NNW 13:47:14 86° ENE 13:50:43 10° SSE
Cosmos 1812 4.4 13:47:07 14° W 13:47:36 14° W 13:49:41 10° WSW
Meteor 2-15 4.5 13:41:56 10° NNW 13:47:51 61° W 13:53:47 10° S
Cosmos 1340 Rocket 2.8 13:45:05 10° SSW 13:48:56 55° W 13:52:52 10° N
Cosmos 1092 Rocket 4.2 13:43:14 10° S 13:49:27 80° E 13:55:46 10° N
Cosmos 1151 Rocket 4.4 13:47:00 11° NW 13:49:46 19° W 13:52:53 10° SW
SMAP 3.8 13:46:41 10° NNE 13:51:16 59° E 13:55:50 10° S
NOAA 11 4.4 13:52:09 10° N 13:57:23 47° WNW 14:02:37 10° SW
FAST Rocket 4.4 13:57:05 10° SSW 13:59:35 38° W 14:02:11 10° N
SL-8 R/B 4.1 13:55:12 10° NW 13:59:56 61° NE 14:04:39 10° ESE
OAO 2 Rocket 3.6 13:55:05 10° WSW 14:00:16 72° SSE 14:05:20 10° ENE
CZ-2C R/B 3.1 13:56:24 10° N 14:01:15 55° WNW 14:06:22 10° SSW
ATLAS 5 CENTAUR R/B 2.9 14:03:01 10° W 14:05:23 16° NW 14:07:52 10° N
CZ-4B R/B 3.5 14:03:07 10° SE 14:05:58 27° ENE 14:08:48 10° NNE
H-2A R/B 3.5 14:02:49 10° NNE 14:07:26 40° E 14:12:06 10° S
